www.pogodaiklimat.ru

Погода и климат >> Архив погоды >> КНДР >> Хесен


ПОГОДА в Хесене

  • Прогноз погоды в Хесене
  • Монитор погоды в Хесене

АРХИВ ПОГОДЫ в Хесене

Время (UTC), дата Ветер
(напр.,м/с)
 
Видим.   Явления Облачность Т
(С)
Тd
(С)
f
(%)
Тe
(С)
Тes
(С)
Комфортность P
(гПа)
Po
(гПа)
Тmin
(С)
Tmax
(С)
R
(мм)
R24
(мм)
S
(см)
15 14.05 СВ 1 20 км ясно +10.2 -1.7 43 +10 +10 1013.7 929.8
18 14.05 С 1 20 км ясно +6.2 -1.7 57 +6 +6 1014.6 931.0
21 14.05 С 1 20 км 1/0 1500 м
[Ac trans]
+4.0 -2.5 63 +3 +4 1016.3 932.2
00 15.05 штиль 0 20 км ясно +10.0 +0.2 51 +10 +23 опасность
простуды
1016.1 932.0 +3.6
03 15.05 Ю 1 20 км 3/3 300 м
[Sc]
+21.1 +1.3 27 +21 +37 комфорт 1012.6 929.2
06 15.05 С 1 20 км 9/0 1500 м
[Ac trans Ci sp]
+26.0 +1.5 20 +24 +36 комфорт 1009.2 926.1
09 15.05 З 3 20 км 5/0 1500 м
[Ac trans Ci sp]
+24.6 -4.4 14 +22 +24 комфорт 1008.0 924.9
12 15.05 СВ 1 20 км 3/3 300 м
[Sc]
+17.3 +1.1 34 +18 +18 1009.5 926.0 +26.5
15 15.05 С 3 20 км 4/4 300 м
[Sc]
+12.6 0.0 42 +12 +12 1010.6 927.6
18 15.05 СВ 1 20 км 10/10 300 м
[Sc]
+10.6 +0.9 51 +11 +11 1010.8 928.0
21 15.05 штиль 0 20 км 10/10 300 м
[Sc]
+9.2 +1.1 57 +9 +9 1012.5 929.4
00 16.05 С 1 20 км слаб. дождь 10/10 300 м
[Sc]
+9.0 +4.5 73 +9 +9 1013.9 929.9 +7.3 0.2
03 16.05 ЮЗ 1 20 км слаб. дождь 10/10 300 м
[Sc]
+14.0 +6.1 59 +14 +14 1013.2 929.3 0.0
06 16.05 СЗ 2 20 км 4/3 300 м
[Cu med, cong Ci fib]
+21.9 +8.0 41 +23 +32 комфорт 1009.7 925.9
09 16.05 З 3 20 км 4/3 300 м
[Cu med, cong Ci fib]
+23.6 +8.2 37 +24 +25 комфорт 1006.9 924.0
12 16.05 ЮЗ 2 20 км 1/1 300 м
[Sc]
+19.7 +9.5 52 +21 +21 комфорт 1011.0 927.4 +25.0 0.0
15 16.05 С 2 20 км ясно +14.0 +9.3 73 +14 +14 1012.5 928.8
18 16.05 СВ 2 20 км ясно +10.2 +8.0 86 +9 +9 1012.9 929.5
21 16.05 штиль 0 20 км ясно +8.4 +6.4 87 +8 +8 1014.4 930.9
00 17.05 штиль 0 20 км 3/0
[Ci fib]
+13.8 +7.7 67 +14 +26 опасность
простуды
1014.2 930.7 +7.6
03 17.05 СЗ 1 20 км 4/0
[Ci sp]
+23.4 +9.1 40 +25 +46 комфорт 1012.8 928.5
06 17.05 Ю 1 20 км 8/1 300 м
[Cu med, cong Ci sp]
+28.7 +6.5 25 +28 +40 жарко 1008.3 925.9
09 17.05 Ю 4 20 км 9/8 300 м
[Cb calv Ci fib]
+26.2 +7.1 30 +26 +26 жарко 1008.8 926.0
12 17.05 штиль 0 20 км 3/3 300 м
[Sc]
+21.2 +9.0 46 +22 +22 комфорт 1011.5 928.5 +29.2
15 17.05 штиль 0 20 км ясно +16.1 +9.8 66 +16 +16 1013.4 930.8
18 17.05 штиль 0 20 км ясно +12.0 +8.0 76 +12 +12 1013.9 931.3
21 17.05 С 1 20 км ясно +9.4 +6.4 82 +9 +9 1015.4 932.4
00 18.05 штиль 0 20 км 3/0
[Ci sp]
+16.1 +8.0 59 +16 +29 опасность
простуды
1014.6 931.8 +9.2
03 18.05 штиль 0 20 км 3/0
[Ci sp]
+25.2 +7.3 32 +25 +50 комфорт 1011.9 929.5
06 18.05 З 3 20 км 5/5 300 м
[Sc]
+27.2 +6.5 27 +27 +32 жарко 1009.9 927.4
09 18.05 Ю 4 20 км 8/1 300 м
[Cu med, cong Ci fib]
+27.4 +8.0 29 +27 +28 жарко 1009.3 926.6
12 18.05 Ю 2 20 км 4/3 300 м
[Sc Ac trans]
+20.8 +8.9 46 +23 +23 комфорт 1011.9 929.0 +29.0
15 18.05 ЮВ 1 20 км 3/0
[Ci sp]
+17.5 +10.6 64 +19 +19 1013.1 930.7
18 18.05 С 1 20 км 9/0 1500 м
[Ac trans Ci sp]
+13.2 +9.3 77 +13 +13 1013.8 930.7
21 18.05 СВ 1 20 км 9/3 300 м
[Sc Ci fib]
+11.2 +8.1 81 +11 +11 1012.9 930.1
00 19.05 СЗ 1 20 км 8/6 300 м
[Sc Ci fib]
+16.7 +8.5 58 +18 +22 1011.0 928.4 +10.9
03 19.05 ЮВ 5 20 км в посл. час дождь 9/9 300 м
[Sc]
+23.4 +9.9 42 +25 +26 комфорт 1007.6 925.4 0.0
06 19.05 ЮВ 6 20 км в посл. час дождь 9/5 300 м
[Sc Ac trans Ci fib]
+21.3 +11.4 53 +23 +25 комфорт 1006.5 923.8 0.0
09 19.05 ЮВ 4 20 км в посл. час дождь 10/10 300 м
[Sc]
+18.1 +12.2 68 +18 +18 1005.5 922.6 0.0
12 19.05 ЮВ 3 20 км слаб. дождь 10/10 300 м
[Sc]
+16.3 +11.7 74 +16 +16 1003.8 921.2 +24.5 0.0
15 19.05 В 1 20 км в посл. час дождь 10/10 300 м
[Sc]
+16.3 +12.1 76 +17 +17 999.6 918.1 0.0
18 19.05 С 1 20 км в посл. час дождь 10/10 300 м
[Sc]
+17.1 +11.4 69 +18 +18 995.4 914.1 0.0
21 19.05 С 1 20 км 10/10 300 м
[Cb calv]
+15.2 +12.6 84 +16 +16 993.7 911.9
00 20.05 штиль 0 20 км 3/3 300 м
[Sc]
+15.9 -1.9 29 +16 +25 994.4 912.5 +13.7
03 20.05 З 4 20 км 8/5 300 м
[Cb calv Ac As]
+15.5 +1.7 39 +15 +19 994.2 912.4
06 20.05 З 6 20 км 9/9 300 м
[Cb calv]
+13.2 -1.4 36 +11 +12 997.1 914.4
09 20.05 З 3 20 км 8/8 300 м
[Cb calv]
+11.8 +0.9 47 +11 +11 997.9 915.2
12 20.05 З 3 20 км в посл. час дождь 9/9 300 м
[Cb calv]
+11.0 +2.1 54 +9 +9 999.8 917.0 +17.5 0.0
15 20.05 штиль 0 20 км в посл. час дождь 6/0 1500 м
[Ac trans]
+8.0 +5.3 83 +7 +7 1000.6 917.5 0.0
18 20.05 З 2 20 км слаб. дождь 10/10 300 м
[Sc]
+8.0 +5.3 83 +6 +6 1000.2 916.8 0.0
21 20.05 С 1 20 км в посл. час дождь 3/3 300 м
[Cb calv]
+5.8 +4.5 91 +5 +5 1000.0 916.4 0.0
00 21.05 штиль 0 20 км в посл. час дождь 8/8 300 м
[Sc]
+10.4 +4.1 65 +10 +13 999.8 917.2 +5.1 0.0
03 21.05 З 4 20 км 8/8 300 м
[Sc]
+15.0 -1.7 32 +14 +17 997.6 914.6
06 21.05 З 3 20 км в посл. час ливневой дождь 8/8 300 м
[Cb calv]
+16.1 -0.5 32 +16 +18 997.2 914.4 0.0
09 21.05 З 5 20 км 8/8 300 м
[Cb calv]
+15.7 -2.7 28 +15 +15 997.8 914.7
12 21.05 Ю 1 20 км 3/3 300 м
[Sc]
+11.0 +2.1 54 +11 +11 1001.4 927.8 +17.2

 

Местоположение метеостанции Хесен (КНДР): широта 41.40 долгота 128.16 высота над уровнем моря 714 м.

В архиве по умолчанию представлена погода в Хесене за последнюю неделю. Архивные данные за месяц целиком и за предыдущие месяцы, начиная с января 2011 года, Вы можете получить, выбрав интересующий диапазон дат из раскрывающегося списка и нажав кнопку "Ввод!".


*Определитесь, кто Вы:
робот инопланетянин человек

Внимание! Время в таблицах - всемирное. Для получения местного времени необходимо прибавить поправку, которая равна 9 ч.

Смотрите также архив погоды в соседних городах и на ближайших метеорологических станциях:

Погода в Чанбае (Гирин, Китай) (6 км)
Погода в Самджиёне (КНДР) (48 км)
Погода в Пунгсане (КНДР) (65 км)
Погода в Линьцзяне (Гирин, Китай) (110 км)
Погода в Чунгане (КНДР) (115 км)
Погода в Кимчхэке (КНДР) (119 км)
Погода в Джангджине (КНДР) (138 км)
Погода в Канге (КНДР) (139 км)
Погода в Чхонджине (КНДР) (144 км)
Погода в Синпхо (КНДР) (152 км)

Пояснения к столбцам:

Ветер - указаны скорость ветра в м/с - средняя за 10 мин, порывы в срок и между сроками (в фигурных скобках) и направление, откуда дует ветер: С - северный, СВ - северо-восточный, В - восточный, ЮВ - юго-восточный, Ю - южный, ЮЗ - юго-западный, З - западный, СЗ - северо-западный.
Видимость - горизонтальная дальность видимости в метрах или километрах. При видимости от 1 до 10 км при отсутствии осадков обычно наблюдается дымка, при ухудшении видимости до 1 км и менее - туман. В сухую погоду видимость может ухудшаться дымом, пылью или мглою.
Явления - указаны атмосферные явления, наблюдавшиеся в срок или в последний час перед сроком; фигурными скобками обозначены явления, наблюдавшиеся между сроками (за 1-3 часа до срока); квадратными скобками обозначены град или гололедные отложения с указанием их диаметра в мм.
Облачность - указаны через наклонную черту общая и нижняя облачность в баллах и высота нижней границы облаков в метрах; квадратными скобками обозначены формы облаков: Ci - перистые, Cs - перисто-слоистые, Cc - перисто-кучевые, Ac - высококучевые, As - высокослоистые, Sc - слоисто-кучевые, Ns - слоисто-дождевые, Cu - кучевые, Cb - кучево-дождевые. Подробнее классификацию облаков см. в Атласе облаков (PDF).
T - Температура воздуха - температура, измеренная на высоте 2 м над землей.
Td - Температура точки росы - температура, при понижении до которой содержащийся в воздухе водяной пар достигнет насыщения.
f - Относительная влажность воздуха - влажноcть воздуха, измеренная на высоте 2 м над землей.
Te - Эффективная температура - температура, которую ощущает одетый по сезону человек в тени. Характеристика душности погоды. При расчете учитывается влияние влажности воздуха и скорости ветра на теплоощущения человека.
Tes - Эффективная температура на солнце - температура, которую ощущает человек, с поправкой на солнечный нагрев. Характеристика знойности погоды. Зависит от высоты солнца над горизонтом, облачности и скорости ветра. Ночью, в пасмурную погоду, а также при ветре 12 м/с и более поправка равна нулю.
P - Атмосферное давление - приведенное к уровню моря атмосферное давление.
Po - Атмосферное давление - измеренное на уровне метеостанции атмосферное давление.
Tmin - Минимальная температура - минимум температуры воздуха на высоте 2 м над землей.
Tmax - Максимальная температура - максимум температуры воздуха на высоте 2 м над землей.
R - Количество осадков - Количество выпавших осадков за период времени, мм. При наведении курсора мыши на число - период времени, за который выпало указанное количество осадков.
R24 - Количество осадков - Количество выпавших осадков за 24 часа, мм.
S - Снежный покров - Высота снежного покрова, см. При наведении курсора мыши на число - состояние снежного покрова и степень покрытия местности в баллах.